Flag for Germany Weather past 2 weeks in Garmisch-Partenkirchen, Bavaria, Germany

52 °F

Partly sunny.

Feels Like: 52 °F
Forecast: 40 / 47 °F
Wind: 2 mph from North

Location: Innsbruck-Flughafen

Current Time: Oct 13, 2015 at 4:04:01 PM

Latest Report: Oct 13, 2015 at 3:20 PM

Visibility: N/A

Pressure: 29.89 "Hg (27.48 "Hg at 699m altitude)

Humidity: 88%

Dew point: 48 °F

Location of Garmisch-PartenkirchenLocation

Historic Weather in Garmisch-Partenkirchen — Graph


Garmisch-Partenkirchen temperature yesterday

Maximum temperature yesterday: 63 °F (at 2:20 PM)
Minimum temperature yesterday: 43 °F (at 8:20 AM)
Average temperature yesterday: 51 °F

Past Weeks' High & Low Weather Summary

High73 °F (Oct 2, 2:50 PM)100% (Sep 30, 4:20 AM)30.45 "Hg (Sep 30, 4:20 AM)
Low36 °F (Sep 29, 7:20 AM)30% (Oct 1, 2:20 PM)29.74 "Hg (Oct 6, 3:20 PM)
Average53 °F77%30.08 "Hg
* Reported Sep 28 2:20 PM — Oct 13 2:50 PM, Garmisch-Partenkirchen, Weather by CustomWeather, © 2015

Note: Actual official high and low records may vary slightly from our data, if they occured in-between our weather recording intervals... More about our weather records


Garmisch-Partenkirchen weather history for previous 24 hours

Time TempWeatherWind HumidityBarometerVisibility
2:50 PM
Tue, Oct 13
52 °FPartly sunny.2 mph82%29.89 "HgN/A
2:20 PM50 °FPartly sunny.5 mph88%29.89 "HgN/A
1:50 PM50 °FBroken clouds.6 mph88%29.89 "HgN/A
1:20 PM50 °FBroken clouds.3 mph88%29.89 "HgN/A
12:50 PM50 °FLight rain. Broken clouds.3 mph88%29.92 "HgN/A
12:20 PM48 °FLight rain. Broken clouds.3 mph87%29.92 "HgN/A
11:50 AM48 °FBroken clouds.3 mph94%29.92 "HgN/A
11:20 AM48 °FDrizzle. More clouds than sun.1 mph87%29.95 "HgN/A
10:50 AM48 °FDrizzle. More clouds than sun.1 mph87%29.95 "HgN/A
10:20 AM48 °FDrizzle. Broken clouds.1 mph87%29.95 "HgN/A
9:50 AM46 °FDrizzle. Broken clouds.1 mph93%29.95 "HgN/A
9:20 AM46 °FDrizzle. Broken clouds.1 mph93%29.95 "HgN/A
8:50 AM46 °FBroken clouds.1 mph93%29.95 "HgN/A
8:20 AM46 °FPassing clouds.1 mph87%29.95 "HgN/A
7:50 AM46 °FPartly cloudy.3 mph87%29.95 "Hg5 mi
7:20 AM46 °FPartly cloudy.6 mph93%29.95 "Hg4 mi
6:50 AM46 °FPartly cloudy.3 mph93%29.95 "HgN/A
6:20 AM46 °FLight rain. Passing clouds.2 mph93%29.95 "Hg5 mi
5:50 AM46 °FSprinkles. Passing clouds.1 mph87%29.95 "Hg5 mi
5:20 AM46 °FOvercast.5 mph87%29.95 "Hg5 mi
4:50 AM46 °FPassing clouds.3 mph87%29.95 "Hg5 mi
4:20 AM46 °FPassing clouds.1 mph87%29.95 "HgN/A
3:50 AM46 °FLight rain. Passing clouds.2 mph93%29.95 "HgN/A
3:20 AM46 °FPassing clouds.1 mph87%29.95 "HgN/A
2:50 AM46 °FPassing clouds.1 mph87%29.95 "HgN/A
2:20 AM45 °FPassing clouds.2 mph93%29.95 "Hg6 mi
1:50 AM45 °FPassing clouds.2 mph93%29.95 "Hg6 mi
1:20 AM45 °FPassing clouds.1 mph93%29.95 "Hg6 mi
12:50 AM46 °FPassing clouds.1 mph87%29.95 "HgN/A
12:20 AM46 °FOvercast.1 mph87%29.98 "HgN/A
11:50 PM
Mon, Oct 12
46 °FFog.2 mph87%29.95 "Hg3 mi
11:20 PM46 °FPassing clouds.1 mph87%29.98 "HgN/A
10:50 PM46 °FClear.1 mph87%29.98 "Hg10 mi
10:20 PM48 °FClear.3 mph82%29.98 "Hg10 mi
9:50 PM48 °FPassing clouds.6 mph82%29.98 "HgN/A
9:20 PM48 °FPassing clouds.5 mph82%29.98 "HgN/A
8:50 PM48 °FPassing clouds.5 mph82%29.95 "HgN/A
8:20 PM50 °FClear.7 mph76%29.95 "Hg10 mi
7:50 PM52 °FPassing clouds.7 mph72%29.95 "HgN/A
7:20 PM52 °FPassing clouds.6 mph77%29.95 "HgN/A
6:50 PM54 °FPassing clouds.7 mph72%29.95 "HgN/A
6:20 PM55 °FPassing clouds.6 mph67%29.92 "HgN/A
5:50 PM57 °FPassing clouds.7 mph63%29.92 "HgN/A
5:20 PM59 °FSunny.10 mph63%29.89 "Hg10 mi
4:50 PM61 °FScattered clouds.12 mph59%29.89 "HgN/A
4:20 PM63 °FScattered clouds.8 mph59%29.89 "HgN/A
Weather by CustomWeather, © 2015

See weather overviewHow to use our weather pages